Regional Weather Roundup
Issued by NWS Binghamton, NY

Home | Current Version | Previous Version | Text Only | Print | Product List | Glossary On
Versions: 1 2 3 4 5 6 7 8 9 10 11 12 13 14 15 16 17 18 19 20 21 22 23 24 25 26 27 28 29 30 31 32 33 34 35 36 37 38 39 40 41 42 43 44 45 46 47 48 49 50
000
ASUS41 KBGM 250410
RWRBGM
RWRBGM
BINGHAMTON REGIONAL WEATHER ROUNDUP
NATIONAL WEATHER SERVICE BINGHAMTON NY
1100 PM EST SAT JAN 24 2015

Note: "fair" indicates few or no clouds below 12,000 feet with no
significant weather and/or obstructions to visibility.

* = Station(s) that does not report precipitation, such as rain,
snow, etc, also no thunder or fog.

!NYZ009-015>018-022>025-036-037-044>046-055>057-062-250500
...CENTRAL NEW YORK...

CITY           SKY/WX    TMP DP  RH WIND       PRES   REMARKS
BINGHAMTON     CLOUDY    27  23  85 W15G21    29.42S WCI  15
CORTLAND       LGT SNOW  30  28  93 SW6       29.46S WCI  24
DANSVILLE      CLOUDY    33  25  72 W13G24    29.50S WCI  24
ELMIRA         FLURRIES  32  24  72 W13       29.49S WCI  22
ITHACA         FLURRIES  30  26  85 W18       29.47S WCI  18
HAMILTON       CLOUDY    30  27  86 NW7       29.41  WCI  23
MONTICELLO     CLOUDY    28  23  80 W12G20    29.42R WCI  18
NORWICH        CLOUDY    28  25  86 W5        29.44S WCI  23
ONEONTA        CLOUDY    25  25 100 W12G17    29.39R WCI  14
PENN YAN       CLOUDY    32  25  75 W14       29.47S WCI  22
ROME           LGT SNOW  29  27  92 W7        29.44F FOG     WCI  22
SIDNEY         CLOUDY    28  27  93 W6        29.45S WCI  22
SYRACUSE       LGT SNOW  28  28 100 W15       29.45S FOG     WCI  16
$$

!PAZ038>040-043-044-047-048-072-250500
...NORTHEAST PENNSYLVANIA...

CITY           SKY/WX    TMP DP  RH WIND       PRES   REMARKS
HAZLETON       CLOUDY    30  25  80 W12G17    29.50R WCI  21
SCRANTON       CLOUDY    33  24  69 W12       29.48R WCI  24
TOWANDA*       CLOUDY    32  23  69 CALM      29.51S
$$
&&
KEY
WCI = WIND CHILL INDEX
VSB = VISIBILITY
HX  = HEAT INDEX
$$



USA.gov is the U.S. government's official web portal to all federal, state and local government web resources and services.